Regional Weather Roundup
Issued by NWS State College, PA

Home | Current Version | Previous Version | Text Only | Print | Product List | Glossary On
Versions: 1 2 3 4 5 6 7 8 9 10 11 12 13 14 15 16 17 18 19 20 21 22 23 24 25 26 27 28 29 30 31 32 33 34 35 36 37 38 39 40 41 42 43 44 45 46 47 48 49 50
000
ASUS41 KCTP 230210
RWRCTP

REGIONAL WEATHER ROUNDUP
NATIONAL WEATHER SERVICE STATE COLLEGE PA
1000 PM EDT TUE AUG 22 2017

Note: "fair" indicates few or no clouds below 12,000 feet with no
significant weather and/or obstructions to visibility.

* = STATION THAT DOES NOT REPORT PRECIPITATION /E.G. RAIN...SNOW...ETC/
    THUNDER OR FOG.

PAZ002>004-007>009-013>016-020>023-029>032-230300-
WESTERN PENNSYLVANIA

CITY           SKY/WX    TMP DP  RH WIND       PRES   REMARKS
ERIE           CLOUDY    71  62  73 N14G22    29.83R
MEADVILLE      CLOUDY    67  66  97 SW9       29.86R
FRANKLIN*      CLOUDY    64  61  88 W10       29.88R
NEW CASTLE     MOCLDY    70  65  84 NW10      29.88R
BEAVER COUNTY  NOT AVBL
BUTLER*        PTCLDY    68  64  88 CALM      29.87R
PITTSBURGH INT PTCLDY    72  69  90 SW7       29.87R
PITTSBURGH     PTCLDY    71  68  90 S7        29.87R
INDIANA*       CLOUDY    70  70 100 W9        29.89S
LATROBE        CLEAR     72  72 100 SW8       29.88S
WASHINGTON CO* CLOUDY    72  68  88 SW5       29.89R
$$

PAZ004>006-010>012-017>019-024>028-033>037-041-042-045-046-049>053-230300-
CENTRAL PENNSYLVANIA

CITY           SKY/WX    TMP DP  RH WIND       PRES   REMARKS
BRADFORD       LGT RAIN  66  65  96 W9        29.85R
DUBOIS         CLOUDY    68  65  90 SW10      29.85R
CLEARFIELD     CLOUDY    69  69 100 SW8       29.85R
JOHNSTOWN      CLOUDY    68  67  96 SW8       29.91R
ALTOONA        PTCLDY    70  68  93 SW7       29.87S
STATE COLLEGE  NOT AVBL
WILLIAMSPORT   CLOUDY    73  72  96 CALM      29.76S
SELINSGROVE    MOCLDY    73  70  90 VRB3      29.79S
FT INDIANTOWN  CLOUDY    74  73  95 S6        29.80R
CAPITAL CITY   CLOUDY    77  69  76 S5        29.79F
HARRISBURG     CLOUDY    76  72  87 S6        29.79S
YORK           CLOUDY    73  73 100 SE6       29.81F
$$

PAZ038>040-043-044-047-048-054-055-060>062-067>071-230300-
EASTERN PENNSYLVANIA

CITY           SKY/WX    TMP DP  RH WIND       PRES   REMARKS
SCRANTON       CLOUDY    73  71  93 SW5       29.78F THUNDER
MOUNT POCONO   CLOUDY    71  70  96 W13G21    29.83F
ALLENTOWN      CLOUDY    73  68  84 SW10      29.80F
QUAKERTOWN*    CLOUDY    72  72 100 SW14G20   29.81R VSB 1
READING        TSTM      72  72 100 VRB6      29.79F FOG
LANCASTER      RAIN      76  75  97 SW12G23   29.80R FOG
COATESVILLE    CLOUDY    81  73  78 S9G16     29.82R
POTTSTOWN      LGT RAIN  75  70  84 W7        29.84R
BLUE BELL      MOCLDY    81  72  74 SW12G23   29.79S
DOYLESTOWN     CLOUDY    76  68  76 N6        29.80R
WILLOW GROVE   NOT AVBL
NORTH PHILA    PTCLDY    85  72  65 SW13G21   29.78F
PHILADELPHIA   MOCLDY    83  72  69 S13       29.78F
$$



USA.gov is the U.S. government's official web portal to all federal, state and local government web resources and services.